EHI
0 0 0 0 0 0 0 0 0 0 0 0 1 3 3 4 5 8 12 16 22 30 38 45 49 52 59 67 73 74 70 63 54 43 36 33 26 18 15 18 20 18 15 13
0 0 0 0 0 0 0 0 0 0 0 1 2 4 4 4 5 8 11 17 25 33 41 48 51 53 57 64 68 69 65 59 53 46 38 32 25 18 16 19 20 18 15 14
0 0 0 0 0 0 0 0 0 0 0 1 3 4 5 5 7 9 12 19 28 35 41 47 51 52 54 57 60 61 61 57 52 46 39 33 26 21 19 20 20 19 17 15
0 0 0 0 0 0 0 0 0 0 0 1 2 3 4 5 7 10 14 21 30 36 39 43 47 50 50 49 50 53 56 57 53 46 40 37 33 28 24 22 22 21 18 16
0 0 0 0 0 0 0 0 0 0 0 0 0 2 4 5 7 12 18 23 29 34 37 39 42 45 45 45 46 50 53 55 51 45 42 41 37 33 28 25 23 22 18 16
0 0 0 0 0 0 0 0 0 0 0 0 0 1 3 5 8 15 23 29 29 30 34 36 38 40 42 45 48 50 51 50 47 44 43 42 37 34 30 26 22 20 18 18
0 0 0 0 0 0 0 0 0 0 0 0 0 1 2 5 9 17 26 32 30 28 31 34 35 37 41 44 48 49 47 44 43 42 43 41 37 33 28 24 19 16 17 19
0 0 0 0 0 0 0 0 0 0 0 0 0 2 5 8 12 18 25 27 26 27 30 33 33 34 38 41 44 44 41 38 38 41 42 41 37 33 28 22 17 13 14 16
0 0 0 0 0 0 0 0 0 0 0 0 1 5 9 12 15 19 21 21 21 24 29 30 29 31 35 38 40 39 38 36 36 37 38 37 34 32 29 23 17 13 13 14
0 0 0 0 0 0 0 0 0 0 0 0 1 4 10 13 14 16 17 18 19 22 26 28 28 29 32 35 37 36 35 34 33 32 32 32 31 27 24 20 16 14 14 15
0 0 0 0 0 0 0 0 0 0 0 0 0 3 7 11 12 13 15 18 20 21 24 28 30 31 32 33 34 33 33 31 30 29 30 31 28 23 17 14 14 15 15 15
0 0 0 0 0 0 0 0 0 0 0 0 0 2 6 9 11 13 16 19 21 22 23 28 31 32 33 33 32 33 32 31 29 28 29 29 26 21 15 12 12 14 14 14
0 0 0 0 0 0 0 0 0 0 0 0 0 2 6 10 12 14 18 22 24 24 26 28 29 31 32 32 32 33 32 31 30 28 28 28 24 21 17 14 12 13 14 14
0 0 0 0 0 0 0 0 0 0 0 0 0 1 5 11 14 16 20 23 24 26 29 28 28 29 30 30 30 29 29 28 27 28 28 26 23 21 19 17 14 13 13 13
0 0 0 0 0 0 0 0 0 0 0 0 0 1 5 11 16 18 20 23 25 28 30 29 27 28 30 30 27 24 24 24 24 25 24 23 22 22 21 19 17 15 13 12
0 0 0 0 0 0 0 0 0 0 1 1 1 3 7 14 18 20 22 23 26 28 29 28 28 28 30 30 27 24 22 22 21 20 19 19 20 22 22 20 19 17 14 12
0 0 0 0 0 0 0 1 1 1 1 2 2 5 10 16 18 20 23 24 26 27 28 30 30 30 30 29 27 25 24 22 19 16 15 16 17 19 20 20 19 16 14 13
1 1 0 0 0 0 0 1 1 1 1 1 3 6 11 15 17 19 22 25 27 29 32 33 32 31 29 26 25 24 24 22 18 15 13 13 15 17 18 19 18 17 15 14
1 1 1 0 0 0 0 1 1 0 0 1 4 8 12 14 16 19 23 28 31 34 35 34 32 30 29 26 23 23 23 20 16 14 13 13 14 16 17 17 18 18 16 14
1 2 1 0 0 0 0 1 1 0 0 2 6 11 14 17 20 23 27 30 32 34 33 30 30 31 30 28 26 26 25 21 15 13 14 14 14 15 17 17 18 18 16 14
1 1 1 1 0 0 0 2 3 4 4 5 9 14 18 22 26 28 29 28 28 27 25 24 26 29 30 27 27 28 27 22 16 13 14 15 15 15 16 18 19 18 16 13
0 1 2 2 1 1 1 3 7 10 10 9 10 15 20 23 25 26 26 24 22 20 19 19 21 24 25 23 23 25 23 18 13 12 13 14 14 13 14 16 17 16 14 12
1 2 3 4 2 2 2 5 7 9 10 10 10 12 16 18 19 19 21 22 19 17 14 15 17 19 19 18 18 19 17 13 10 10 12 13 12 11 13 14 14 13 11 8
1 2 3 3 2 1 2 4 4 5 7 9 8 9 10 12 14 15 18 20 18 15 12 12 14 15 15 14 14 14 12 10 8 8 10 11 10 10 11 11 11 10 8 6
1 1 3 3 1 0 0 1 2 3 4 5 6 8 9 10 12 15 17 19 17 14 13 13 14 14 14 12 12 11 9 7 7 8 9 9 8 8 8 9 8 7 6 5
1 1 2 3 2 1 0 0 1 2 2 2 5 9 11 11 12 13 15 17 16 14 14 14 14 14 14 13 12 10 7 6 6 7 7 7 7 6 7 7 5 4 4 3
Wind_Speed
12 13 12 12 12 12 12 12 10 7 6 6 6 7 7 7 6 7 6 6 8 9 10 9 9 9 9 8 7 6 5 3 2 2 2 1 1 1 1 1 2 2 1 1
12 15 13 10 10 11 13 13 11 7 4 5 7 7 6 6 6 6 5 6 7 8 10 9 9 8 8 8 7 6 5 4 2 2 1 1 1 1 1 1 2 2 1 0
15 9 8 10 11 11 13 11 10 7 6 8 8 8 7 6 6 5 5 6 6 8 10 10 9 8 8 7 7 5 5 4 3 2 1 1 1 1 1 1 1 1 1 1
13 10 9 11 12 11 11 9 10 11 9 7 6 8 7 7 6 6 6 7 7 7 8 8 8 8 8 7 7 6 5 4 3 2 1 1 1 1 1 1 1 1 1 1
10 10 11 12 10 10 10 7 9 13 12 11 10 9 6 6 7 6 5 7 7 8 8 8 7 7 8 7 7 6 5 4 3 2 2 1 1 1 1 1 1 1 1 0
12 11 11 10 9 8 9 9 11 12 11 12 11 9 6 6 7 6 5 6 7 6 7 8 7 7 7 7 7 7 6 4 3 2 2 1 1 1 1 1 1 1 1 1
13 12 10 8 10 9 9 9 7 7 8 9 9 8 3 3 4 4 5 6 7 7 7 6 6 6 6 7 7 7 6 5 3 2 2 1 1 1 1 1 1 1 1 1
11 10 9 7 9 9 10 11 8 7 8 7 8 5 2 3 4 7 5 6 7 7 7 6 6 6 6 6 6 7 6 5 4 3 2 1 1 0 1 0 0 0 0 1
9 8 7 7 8 11 10 10 11 11 12 10 5 1 3 5 5 6 5 5 7 7 6 6 6 6 6 5 5 6 6 5 4 3 3 2 1 0 1 1 0 0 1 1
10 11 8 7 8 12 12 9 7 8 8 9 6 4 2 5 5 5 4 5 7 6 6 6 6 6 6 5 5 5 5 5 4 3 2 2 1 1 1 1 1 1 1 1
9 9 10 8 9 9 10 10 8 7 8 7 7 3 1 3 4 5 5 5 6 6 5 5 5 6 6 5 5 5 5 4 4 3 2 2 1 1 1 1 1 0 0 0
6 7 9 10 8 9 9 8 7 6 7 7 7 3 1 3 4 4 4 6 7 7 5 6 6 6 5 5 4 4 4 4 4 3 3 2 1 1 0 0 0 0 1 1
5 5 7 8 7 6 8 8 8 8 7 7 8 3 2 3 4 4 5 6 6 7 6 6 6 5 5 4 4 4 3 3 3 3 3 2 1 1 1 1 1 1 1 2
6 7 9 9 8 7 10 11 10 8 7 8 7 4 4 4 5 5 6 6 5 5 5 5 4 4 4 4 3 3 2 3 3 3 3 3 2 2 2 1 1 2 2 2
6 9 11 11 12 12 11 12 11 10 9 9 7 5 3 3 5 5 5 6 6 5 5 4 3 3 3 3 3 2 2 2 2 3 3 3 3 2 2 2 2 2 2 2
4 8 10 11 13 12 11 12 11 10 9 9 8 3 2 5 5 5 4 4 5 5 4 3 3 3 3 2 2 2 2 2 1 2 2 2 3 3 2 2 2 2 2 2
5 6 10 11 12 12 12 9 8 6 7 8 7 2 2 4 4 4 4 3 3 3 3 4 4 3 2 2 1 1 1 1 2 2 2 2 3 3 3 3 2 2 2 2
6 7 7 10 10 12 6 4 5 6 5 5 3 1 1 3 5 5 4 3 3 3 4 4 3 2 2 1 0 0 1 1 2 2 2 2 2 2 2 2 2 2 2 2
7 6 7 8 10 10 7 4 5 6 4 4 3 2 3 3 4 4 5 5 5 5 4 3 2 2 2 1 0 0 0 1 1 2 2 1 1 1 2 2 2 2 2 2
9 7 8 9 10 10 4 2 4 5 4 2 2 2 3 2 1 4 6 6 5 5 4 3 2 2 2 1 1 0 1 1 1 1 1 1 1 1 2 2 2 2 2 3
7 8 10 11 11 7 5 3 2 3 2 3 3 3 3 3 4 5 5 5 5 5 3 3 3 2 2 1 1 0 1 1 2 2 2 1 1 2 1 1 1 2 2 2
5 6 7 8 9 5 6 4 3 3 4 4 3 3 5 5 5 5 5 5 5 4 3 3 2 2 1 1 0 1 1 2 2 2 2 2 1 2 1 1 1 2 2 2
4 3 3 3 2 2 4 4 3 2 2 3 2 3 3 3 4 4 4 4 3 3 2 2 2 2 1 1 0 1 1 2 2 2 2 2 2 2 1 1 2 2 2 2
3 3 4 4 3 2 2 2 1 1 2 2 2 1 2 3 3 3 4 3 3 2 2 1 1 1 1 0 1 1 1 1 1 2 2 2 1 1 1 1 2 2 2 2
6 5 5 5 5 5 4 3 1 2 2 1 1 0 1 3 3 3 3 3 2 2 1 1 1 0 0 0 0 1 1 1 2 2 2 2 2 2 1 1 2 2 1 1
5 4 4 5 4 4 4 3 1 1 1 1 1 0 1 2 2 3 3 3 2 2 1 1 1 1 1 1 1 1 1 2 2 2 2 2 2 2 2 2 1 1 1 1
Wind_Direction
222 231 236 236 237 259 274 272 264 248 221 234 238 233 217 203 204 205 182 177 160 159 144 131 127 130 128 122 120 117 116 114 127 123 131 130 114 102 92 106 113 102 80 80
227 231 238 248 253 260 267 271 274 260 223 243 250 243 239 217 216 211 181 182 160 153 138 133 133 134 133 132 131 125 126 124 116 92 103 126 137 148 131 95 99 120 130 168
236 238 228 248 249 255 260 267 277 277 261 243 248 249 240 225 217 213 186 173 154 160 148 145 144 142 136 133 135 137 128 130 122 104 86 84 106 129 109 109 109 116 143 153
241 247 249 248 250 253 262 271 278 281 272 263 249 256 230 222 220 214 189 174 161 156 151 146 151 148 144 142 135 126 125 126 125 130 129 145 143 136 136 133 114 101 91 108
243 244 248 251 252 255 268 283 277 275 269 269 257 258 229 212 219 214 197 163 161 156 150 154 160 152 149 145 140 134 125 119 118 122 109 114 110 111 98 111 118 132 127 111
255 246 248 257 257 258 270 269 264 263 262 258 258 262 250 209 208 203 171 144 135 141 139 156 156 150 148 141 135 132 127 123 123 123 110 109 76 85 95 103 133 174 169 168
246 241 236 242 255 240 248 260 267 265 251 252 253 246 236 158 148 148 147 136 135 138 141 149 151 141 139 139 137 134 132 132 133 131 110 106 92 77 107 143 160 174 160 129
247 237 226 225 249 257 244 246 252 269 279 284 265 247 149 99 102 100 95 122 123 127 141 148 145 141 146 139 138 134 135 139 145 145 138 124 114 176 164 110 51 97 66 122
277 260 228 225 238 255 251 248 259 267 272 271 259 202 145 120 109 105 111 121 130 140 141 148 142 139 136 134 130 133 136 142 147 148 144 143 126 69 73 117 159 90 53 91
277 289 263 227 237 238 248 260 272 270 280 283 276 255 180 158 148 135 147 157 143 139 139 128 125 127 124 129 127 129 138 143 139 138 151 144 149 159 129 145 114 82 47 32
270 277 276 250 233 251 245 246 257 272 273 282 283 287 110 155 150 150 157 136 129 127 124 124 120 119 124 125 131 140 145 143 138 139 133 125 140 162 180 139 135 128 98 176
267 274 280 272 260 259 255 252 256 261 270 276 281 273 57 142 136 142 134 124 124 125 131 126 121 118 122 126 134 139 147 151 147 143 138 137 141 159 155 145 131 173 213 239
304 271 267 261 245 244 261 259 256 255 262 268 271 262 103 131 116 113 108 107 116 126 126 120 121 124 123 122 126 134 142 148 151 152 154 155 163 171 187 218 229 221 234 248
282 266 266 270 287 291 278 268 262 259 259 265 264 247 221 168 135 121 110 113 116 115 118 115 115 118 117 118 119 128 141 147 151 156 164 164 174 190 209 229 240 232 231 239
285 267 266 273 279 280 280 283 270 263 259 264 261 239 210 139 135 129 124 128 130 131 116 116 119 109 116 120 126 140 141 142 165 176 179 177 183 196 208 223 234 233 233 238
260 278 281 275 273 272 270 269 269 266 272 268 271 271 119 126 125 128 128 135 131 132 131 129 114 111 114 122 139 154 163 170 171 190 200 184 185 198 208 220 223 225 234 244
271 274 277 272 274 282 264 264 265 267 278 282 295 313 110 125 128 124 119 125 128 119 112 99 95 99 113 111 96 188 180 181 194 208 208 202 199 203 210 225 224 232 233 236
257 275 272 273 277 267 269 295 291 284 295 308 331 10 87 114 116 106 96 90 97 102 103 90 86 88 97 101 99 251 206 201 212 223 224 214 216 208 212 222 225 233 239 239
220 240 263 269 267 263 264 288 307 296 289 323 344 50 76 102 126 105 88 79 75 76 84 90 99 101 106 114 29 40 221 240 259 260 257 233 229 218 217 220 227 234 235 247
210 210 243 261 270 269 281 322 308 284 251 1 35 51 61 70 218 102 87 85 83 81 83 94 102 100 96 96 70 339 271 290 299 307 294 275 266 258 245 225 221 230 232 241
229 223 236 256 262 273 337 342 342 275 332 32 39 49 64 61 67 106 107 95 93 91 90 95 92 88 88 84 72 27 344 338 335 332 313 302 279 264 248 223 217 228 238 244
256 253 250 258 258 267 5 352 26 39 36 44 40 52 80 90 98 106 109 109 108 103 107 105 101 97 101 94 62 44 11 347 348 355 345 325 304 282 273 259 254 246 243 242
259 274 272 274 286 15 22 44 56 39 39 42 41 62 101 106 111 112 110 112 121 129 122 113 116 121 128 124 41 350 2 350 340 335 326 324 329 312 285 260 258 251 245 250
290 310 287 280 269 296 358 17 88 66 49 45 44 71 125 126 128 125 122 119 119 120 121 120 131 141 115 86 15 354 347 342 313 288 290 286 274 274 280 257 259 252 249 260
303 306 290 280 292 304 323 340 7 91 78 47 27 205 159 144 133 121 121 121 120 117 116 162 166 216 134 155 302 309 314 303 291 271 246 246 248 241 264 280 296 278 303 267
300 299 290 296 320 311 314 321 4 67 69 50 23 18 84 106 110 118 124 123 134 152 169 180 175 222 256 234 205 233 258 265 274 268 254 249 239 225 225 217 259 329 260 254